[[{"header":{"parameterUnit":"m.s-1","parameterCategory":1,"la1":30.2991,"la2":30.254,"lo1":-89.0895,"lo2":-89.0444,"dy":0.0017,"dx":0.0017,"nx":28,"ny":28,"refTime":"2024-08-25T09:00:00:Z","depth":0,"parameterNumber":2,"parameterNumberName":"U-component_of_WINDS"},"data":[0,0,0,0,0,0,0,0,0,0,0,0,0,0,0,0,0,0,0,0,0,0,0,0,0,0,0,0,0,0,0,0,0,0,0,0,0,0,0,0,0,0,0,0,0,0,0,0,0,0,0,0,0,0,0,0,0,0,-5.6118,-5.6118,0,-5.6076,-5.6075,-5.6075,-5.5932,-5.5928,-5.5925,-5.5922,-5.5882,-5.5884,-5.5885,0,0,0,0,0,0,0,0,0,0,0,0,0,-5.608,-5.6081,-5.6118,-5.6118,-5.6117,-5.6076,-5.6075,-5.6074,-5.5932,-5.5928,-5.5924,-5.5921,-5.5881,-5.5883,-5.5886,0,0,0,0,0,0,0,0,0,0,0,0,0,-5.6073,-5.6081,-5.6118,-5.6041,-5.6034,-5.6076,-5.6075,-5.6074,-5.5933,-5.5928,-5.5923,-5.5919,-5.588,-5.5883,-5.5886,-5.6,0,0,-5.5895,-5.5896,0,0,0,0,0,0,0,0,-5.6073,-5.6074,-5.6053,-5.6046,-5.6038,-5.6004,-5.6046,-5.605,-5.5934,-5.5971,-5.5922,-5.5917,-5.5926,-5.5925,-5.5928,-5.5998,-5.5996,-5.5895,-5.5897,-5.5898,-5.5899,0,0,0,0,0,0,0,-5.6074,-5.6075,-5.6101,-5.6053,-5.6044,-5.601,-5.6003,-5.6046,-5.5977,-5.5968,-5.5957,-5.5954,-5.5922,-5.5926,-5.5926,-5.5996,-5.5895,-5.5897,-5.5899,-5.59,-5.6159,-5.6164,0,0,0,0,0,0,-5.6085,-5.6077,-5.6103,-5.61,-5.6044,-5.6014,-5.6007,-5.602,-5.5976,-5.5964,-5.5958,-5.5948,-5.5923,-5.5923,-5.5924,-5.6055,-5.5898,-5.5901,-5.5902,-5.6154,-5.6161,-5.6166,0,0,0,0,0,0,-5.6085,-5.6089,-5.6104,-5.6086,-5.6085,-5.602,-5.6035,-5.6022,-5.6025,-5.5968,-5.5956,-5.5975,-5.5919,-5.592,-5.5982,-5.6052,-5.5902,-5.5904,-5.6148,-5.6156,-5.6163,-5.6319,0,0,0,0,0,0,-5.6084,-5.6089,-5.6131,-5.6087,-5.6086,-5.6163,-5.604,-5.6024,-5.603,-5.6016,-5.5981,-5.597,-5.5915,-5.5979,-5.5985,-5.6053,-5.5907,-5.6142,-5.6152,-5.6161,-5.6308,-5.6332,-5.6352,0,0,0,0,0,-5.6083,-5.6177,-5.6134,-5.6138,-5.6137,-5.6167,-5.6167,-5.6101,-5.6036,-5.6079,-5.6042,-5.5971,-5.6044,-5.5986,-5.5992,-5.6062,-5.6137,-5.6149,-5.616,-5.6298,-5.6327,-5.6351,0,0,0,0,0,0,-5.6231,-5.617,-5.6121,-5.6204,-5.6192,-5.6143,-5.6194,-5.6133,-5.614,-5.6126,-5.6045,-5.6039,-5.6113,-5.6094,-5.6031,-5.6171,-5.6078,-5.6092,-5.6181,-5.6208,-5.623,-5.6233,-5.5909,0,0,0,0,0,-5.6274,-5.6302,-5.6247,-5.6325,-5.6321,-5.626,-5.627,-5.622,-5.6205,-5.6199,-5.6167,-5.6156,-5.6176,-5.6191,-5.6206,-5.6304,-5.6295,-5.6356,-5.6378,-5.6396,-5.6409,-5.6461,-5.6487,-5.6204,-5.6204,-5.6204,0,0,-5.6361,-5.6331,-5.6354,-5.6354,-5.6339,-5.6371,-5.6256,-5.6295,-5.6318,-5.6205,-5.6262,-5.6239,-5.6221,-5.6303,-5.6337,-5.6289,-5.6485,-5.6411,-5.6426,-5.6429,-5.6475,-5.6502,-5.6526,-5.6212,-5.6211,-5.6209,0,0,-5.6537,-5.6517,-5.658,-5.6567,-5.6545,-5.6504,-5.6519,-5.648,-5.646,-5.6516,-5.6432,-5.646,-5.6496,-5.6487,-5.6487,-5.6662,-5.6597,-5.6669,-5.6785,-5.6836,-5.6858,-5.6878,-5.6941,-5.6965,-5.6682,-5.6682,-5.6683,0,-5.6648,-5.6693,-5.662,-5.6665,-5.6668,-5.6567,-5.6631,-5.6623,-5.6608,-5.6613,-5.6559,-5.6603,-5.6584,-5.6663,-5.6705,-5.6709,-5.6725,-5.6673,-5.6861,-5.688,-5.6897,-5.6956,-5.698,-5.6691,-5.669,-5.6689,-5.6689,0,-5.6832,-5.6864,-5.6918,-5.6906,-5.6915,-5.697,-5.6906,-5.6925,-5.6875,-5.684,-5.6899,-5.6873,-5.6881,-5.6896,-5.6848,-5.6969,-5.694,-5.6875,-5.678,-5.6934,-5.6988,-5.701,-5.6704,-5.6701,-5.6698,-5.6696,0,0,-5.7098,-5.7046,-5.7067,-5.7061,-5.7031,-5.7055,-5.7106,-5.7113,-5.7132,-5.7125,-5.7167,-5.72,-5.714,-5.7141,-5.7091,-5.7137,-5.7278,-5.7066,-5.7064,-5.7107,-5.7411,-5.746,-5.7487,-5.7235,-5.7239,-5.7243,-5.7412,0,-5.7266,-5.7348,-5.7285,-5.7379,-5.7409,-5.7315,-5.7359,-5.7346,-5.7315,-5.7337,-5.7302,-5.7328,-5.7246,-5.7246,-5.7287,-5.7253,-5.7338,-5.7239,-5.7274,-5.7276,-5.7282,-5.7516,-5.7567,-5.7729,-5.7433,-5.7437,-5.7439,0,-5.7472,-5.7475,-5.7572,-5.7536,-5.7546,-5.7587,-5.759,-5.7612,-5.7596,-5.757,-5.7572,-5.7511,-5.756,-5.7467,-5.7534,-5.7468,-5.7479,-5.7464,-5.7469,-5.747,-5.7367,-5.7523,-5.7778,-5.7803,-5.7472,-5.7469,-5.7467,0,-5.7658,-5.7686,-5.7748,-5.7745,-5.7705,-5.7737,-5.7722,-5.7701,-5.771,-5.7713,-5.7719,-5.7728,-5.7734,-5.7743,-5.7687,-5.7624,-5.7762,-5.7664,-5.7743,-5.7745,-5.7776,-5.7775,-5.8037,-5.7783,-5.7782,-5.7782,-5.7782,0,-5.7851,-5.7915,-5.7831,-5.7869,-5.7938,-5.7866,-5.7936,-5.7911,-5.7894,-5.7927,-5.7846,-5.7879,-5.7802,-5.7828,-5.7784,-5.7847,-5.785,-5.7832,-5.7819,-5.7839,-5.7842,-5.7845,-5.7832,-5.7788,-5.7787,-5.7786,-5.7785,0,-5.807,-5.8016,-5.8078,-5.8035,-5.8026,-5.8079,-5.8043,-5.8077,-5.8041,-5.8084,-5.809,-5.8034,-5.806,-5.8004,-5.8023,-5.7993,-5.8083,-5.8053,-5.8088,-5.8079,-5.8161,-5.8155,-5.8435,-5.8469,-5.8194,-5.8196,-5.8199,0,-5.8197,-5.8244,-5.8206,-5.8222,-5.8212,-5.8238,-5.8247,-5.8179,-5.8192,-5.8179,-5.8215,-5.8234,-5.8246,-5.8292,-5.8254,-5.8268,-5.8238,-5.8335,-5.8239,-5.8258,-5.824,-5.8238,-5.8243,-5.8355,-5.8358,-5.8361,-5.8363,0,-5.8429,-5.84,-5.8416,-5.8424,-5.8437,-5.844,-5.8436,-5.8455,-5.8382,-5.8401,-5.8426,-5.8435,-5.8454,-5.8475,-5.848,-5.8466,-5.8404,-5.8394,-5.8413,-5.8433,-5.8452,-5.8444,-5.8142,-5.8387,-5.8385,-5.8383,-5.8382,-5.8381,-5.8606,-5.8643,-5.8623,-5.8644,-5.8635,-5.8634,-5.8665,-5.8633,-5.8652,-5.8662,-5.862,-5.8656,-5.864,-5.8641,-5.8633,-5.8661,-5.8617,-5.8645,-5.8651,-5.8659,-5.8673,-5.8448,-5.8661,-5.8661,-5.866,-5.8659,-5.8659,0,-5.8833,-5.8816,-5.8836,-5.8835,-5.8852,-5.8791,-5.8785,-5.8804,-5.8835,-5.8825,-5.8839,-5.8869,-5.8889,-5.8853,-5.8867,-5.8896,-5.8868,-5.8902,-5.8899,-5.8897,-5.8711,-5.8693,-5.8925,-5.8925,-5.8925,-5.8924,-5.8924,-5.8924,-5.8954,-5.9014,-5.8984,-5.904,-5.9022,-5.9055,-5.9057,-5.9057,-5.9049,-5.9086,-5.9102,-5.9078,-5.9058,-5.9071,-5.9087,-5.9076,-5.9085,-5.913,-5.9109,-5.8936,-5.891,-5.8885,-5.8868,-5.9133,-5.9133,-5.9293,-5.9295,-5.9296]},{"header":{"parameterUnit":"m.s-1","parameterCategory":1,"la1":30.2991,"la2":30.254,"lo1":-89.0895,"lo2":-89.0444,"dy":0.0017,"dx":0.0017,"nx":28,"ny":28,"refTime":"2024-08-25T09:00:00:Z","depth":0,"parameterNumber":3,"parameterNumberName":"V-component_of_WINDS"},"data":[0,0,0,0,0,0,0,0,0,0,0,0,0,0,0,0,0,0,0,0,0,0,0,0,0,0,0,0,0,0,0,0,0,0,0,0,0,0,0,0,0,0,0,0,0,0,0,0,0,0,0,0,0,0,0,0,0,0,0.62,0.62,0,0.6196,0.6196,0.6196,0.6201,0.6201,0.6202,0.6202,0.6197,0.6197,0.6196,0,0,0,0,0,0,0,0,0,0,0,0,0,0.621,0.621,0.62,0.62,0.62,0.6196,0.6196,0.6196,0.6201,0.6201,0.6202,0.6202,0.6197,0.6197,0.6196,0,0,0,0,0,0,0,0,0,0,0,0,0,0.6206,0.621,0.62,0.6202,0.6202,0.6196,0.6196,0.6196,0.6201,0.6201,0.6202,0.6202,0.6197,0.6197,0.6196,0.6188,0,0,0.6195,0.6195,0,0,0,0,0,0,0,0,0.6206,0.6206,0.6202,0.6202,0.6202,0.62,0.6198,0.6193,0.6201,0.6202,0.6202,0.6202,0.6198,0.6197,0.6196,0.6188,0.6188,0.6195,0.6195,0.6194,0.6194,0,0,0,0,0,0,0,0.6207,0.6206,0.6198,0.6202,0.6202,0.6203,0.6202,0.6197,0.6198,0.6201,0.6202,0.6201,0.6198,0.6196,0.6196,0.6187,0.6195,0.6195,0.6194,0.6194,0.6171,0.6171,0,0,0,0,0,0,0.6207,0.6206,0.6199,0.6198,0.6205,0.6202,0.6202,0.62,0.6198,0.6198,0.6201,0.6202,0.6197,0.6196,0.6196,0.6185,0.6194,0.6194,0.6194,0.6172,0.6171,0.6171,0,0,0,0,0,0,0.6207,0.6206,0.6199,0.6202,0.6201,0.6202,0.62,0.62,0.6198,0.6198,0.6198,0.62,0.6197,0.6196,0.619,0.6185,0.6194,0.6193,0.6172,0.6172,0.6171,0.6164,0,0,0,0,0,0,0.6207,0.6206,0.6203,0.6202,0.6201,0.6193,0.6199,0.62,0.6198,0.6198,0.6196,0.6196,0.6197,0.619,0.6189,0.6184,0.6193,0.6173,0.6172,0.6171,0.6164,0.6163,0.6162,0,0,0,0,0,0.6208,0.6201,0.6203,0.6202,0.6198,0.6193,0.6192,0.6194,0.6197,0.6194,0.6194,0.6196,0.6186,0.619,0.6188,0.6183,0.6173,0.6172,0.6171,0.6165,0.6163,0.6162,0,0,0,0,0,0,0.6202,0.6201,0.6203,0.6196,0.6195,0.6194,0.619,0.6192,0.6189,0.619,0.6191,0.6191,0.6184,0.6183,0.6187,0.6175,0.618,0.6179,0.6175,0.6174,0.6172,0.6172,0.6193,0,0,0,0,0,0.6199,0.6196,0.6196,0.619,0.6189,0.6189,0.6187,0.6189,0.6187,0.6186,0.6185,0.6183,0.6179,0.6177,0.6173,0.6165,0.6164,0.616,0.6159,0.6158,0.6157,0.6151,0.615,0.6169,0.6169,0.6169,0,0,0.6195,0.6194,0.6192,0.6188,0.6187,0.6183,0.6189,0.6184,0.6181,0.6185,0.6179,0.6178,0.6176,0.6168,0.6165,0.6167,0.6152,0.6157,0.6156,0.6156,0.615,0.6149,0.6147,0.6168,0.6168,0.6168,0,0,0.6184,0.6184,0.6178,0.6177,0.6175,0.6176,0.6175,0.6173,0.6173,0.6167,0.617,0.6166,0.6159,0.6157,0.6155,0.6144,0.6146,0.6143,0.6136,0.613,0.6129,0.6127,0.6122,0.612,0.6142,0.6142,0.6141,0,0.6179,0.6173,0.6175,0.617,0.6168,0.6172,0.6166,0.6165,0.6162,0.616,0.6164,0.6155,0.6154,0.6145,0.6142,0.6141,0.6139,0.6142,0.6129,0.6127,0.6126,0.6121,0.6119,0.6141,0.6141,0.6141,0.6141,0,0.6166,0.6162,0.6157,0.6154,0.6152,0.6147,0.6148,0.6145,0.6147,0.6147,0.614,0.6138,0.6134,0.6133,0.6134,0.6124,0.6125,0.6129,0.6134,0.6124,0.6119,0.6117,0.614,0.6141,0.6141,0.6141,0,0,0.6151,0.6149,0.6147,0.6146,0.6144,0.6141,0.6135,0.6131,0.6129,0.6127,0.6121,0.6116,0.6119,0.6116,0.6118,0.6113,0.6103,0.6117,0.6117,0.6113,0.609,0.6087,0.6085,0.6104,0.6104,0.6104,0.609,0,0.6139,0.613,0.6132,0.6123,0.6118,0.6122,0.6117,0.6116,0.6115,0.6111,0.6111,0.6107,0.6111,0.611,0.6106,0.6105,0.6098,0.6106,0.6099,0.6098,0.6098,0.6083,0.6079,0.6066,0.6088,0.6088,0.6088,0,0.6125,0.6122,0.6112,0.6111,0.6109,0.6105,0.6101,0.6097,0.6095,0.6095,0.6093,0.6095,0.6089,0.6095,0.6086,0.6091,0.6088,0.6087,0.6087,0.6085,0.6092,0.6079,0.6062,0.606,0.6085,0.6085,0.6086,0,0.6113,0.6108,0.6101,0.6099,0.6098,0.6094,0.6093,0.6091,0.6089,0.6085,0.6084,0.608,0.6077,0.6074,0.6074,0.6079,0.6065,0.6071,0.6064,0.6064,0.606,0.606,0.6041,0.606,0.606,0.606,0.606,0,0.61,0.6094,0.6095,0.6091,0.6084,0.6086,0.6079,0.6078,0.6076,0.6072,0.6075,0.607,0.6072,0.6067,0.6068,0.6059,0.6059,0.6058,0.6058,0.6057,0.6057,0.6054,0.6055,0.606,0.606,0.606,0.606,0,0.6086,0.6087,0.6079,0.6078,0.6078,0.6073,0.6071,0.6067,0.6067,0.6061,0.606,0.606,0.6054,0.6055,0.6049,0.6049,0.6039,0.604,0.6039,0.6039,0.6032,0.6032,0.6009,0.6006,0.6028,0.6028,0.6028,0,0.6077,0.6072,0.607,0.6067,0.6066,0.6061,0.6059,0.6061,0.6058,0.6054,0.605,0.6045,0.6041,0.6032,0.6031,0.6026,0.6027,0.6019,0.6026,0.6025,0.6025,0.6025,0.6024,0.6018,0.6017,0.6017,0.6017,0,0.606,0.606,0.6057,0.6053,0.6049,0.6046,0.6044,0.6041,0.6043,0.6039,0.6033,0.603,0.6024,0.6018,0.6014,0.6012,0.6014,0.6015,0.6013,0.6011,0.601,0.601,0.6034,0.6015,0.6015,0.6016,0.6016,0.6016,0.6047,0.6043,0.604,0.6036,0.6034,0.6031,0.6027,0.6027,0.6022,0.6017,0.6019,0.6012,0.6009,0.6003,0.6001,0.5996,0.5998,0.5996,0.5995,0.5994,0.5992,0.6012,0.5995,0.5995,0.5995,0.5995,0.5995,0,0.6029,0.6028,0.6024,0.602,0.6016,0.6019,0.6016,0.6013,0.6007,0.6005,0.6,0.5994,0.5988,0.5987,0.5982,0.5977,0.5978,0.5976,0.5975,0.5975,0.5991,0.5993,0.5975,0.5975,0.5975,0.5975,0.5975,0.5975,0.602,0.6012,0.6012,0.6003,0.6002,0.5996,0.5994,0.5991,0.5989,0.5981,0.5977,0.5976,0.5974,0.5968,0.5963,0.5963,0.596,0.5957,0.5957,0.5972,0.5974,0.5976,0.5977,0.5957,0.5957,0.5941,0.5941,0.5941]}]]